FW8736 Weather Reports


Display with metric or nautical units.
time (UTC)temp
F
wind
direction
speed
MPH
gust
MPH
rain 1hr
in
rain 24hr
in
rain mn
in
humidity
%
barometer
mb
20260507040016 65 311 1.0 3.0 0.00 0.14 0.00 92 1008.6
20260507035016 65 222 2.0 4.0 0.00 0.14 0.14 91 1008.7
20260507034015 65 208 0.0 2.0 0.00 0.14 0.14 90 1008.3
20260507033015 65 0.0 0.0 0.00 0.14 0.14 90 1008.1
20260507032016 65 0.0 0.0 0.00 0.14 0.14 91 1008.2
20260507031016 65 0.0 0.0 0.00 0.14 0.14 91 1008.3
20260507030016 64 188 0.0 3.0 0.00 0.14 0.14 92 1008.1
20260507025016 63 0.0 0.0 0.00 0.14 0.14 93 1008.1
20260507024016 64 0.0 0.0 0.00 0.14 0.14 93 1008.0
20260507023017 64 131 0.0 1.0 0.00 0.14 0.14 93 1008.1
20260507022017 64 119 0.0 1.0 0.00 0.14 0.14 93 1008.1
20260507021017 64 0.0 0.0 0.00 0.14 0.14 92 1007.9
20260507020017 65 102 0.0 2.0 0.00 0.14 0.14 91 1008.2
20260507015017 65 120 0.0 1.0 0.00 0.14 0.14 91 1008.7
20260507014018 65 132 0.0 2.0 0.00 0.14 0.14 90 1008.9
20260507013038 65 140 0.0 1.0 0.00 0.14 0.14 90 1009.0
20260507012018 64 0.0 0.0 0.00 0.14 0.14 91 1008.7
20260507010015 65 105 0.0 0.0 0.00 0.14 0.14 90 1008.4
20260507005035 65 73 0.0 1.0 0.00 0.14 0.14 89 1008.4
20260507004036 66 100 0.0 1.0 0.00 0.14 0.14 88 1008.3
20260507003016 66 111 0.0 1.0 0.00 0.14 0.14 87 1008.4
20260507002016 66 148 0.0 2.0 0.00 0.14 0.14 86 1008.5
20260507001016 67 0.0 0.0 0.00 0.14 0.14 85 1008.4
20260507000016 67 179 1.0 2.0 0.00 0.14 0.14 84 1008.2
20260506235018 68 171 1.0 3.0 0.00 0.14 0.14 83 1008.1
20260506234017 68 154 1.0 4.0 0.00 0.14 0.14 82 1007.8
20260506233017 68 157 2.0 6.0 0.00 0.14 0.14 81 1007.9
20260506232017 69 184 3.0 6.0 0.00 0.14 0.14 81 1008.0
20260506231017 69 170 2.0 5.0 0.00 0.14 0.14 81 1007.9
20260506230017 69 186 3.0 7.0 0.00 0.14 0.14 80 1007.8
20260506225018 69 198 3.0 7.0 0.00 0.14 0.14 79 1008.0
20260506224018 69 190 3.0 6.0 0.00 0.14 0.14 79 1007.9
20260506223015 69 198 5.0 10.0 0.00 0.14 0.14 78 1008.0
20260506222016 70 193 5.0 11.0 0.00 0.14 0.14 78 1008.0
20260506221016 70 186 5.0 8.0 0.00 0.14 0.14 77 1007.9
20260506220016 70 186 6.0 10.0 0.00 0.14 0.14 77 1008.0
20260506215016 71 195 5.0 10.0 0.00 0.14 0.14 76 1008.0
20260506214016 71 181 4.0 9.0 0.00 0.14 0.14 75 1007.9
20260506213016 70 196 6.0 11.0 0.00 0.14 0.14 76 1007.7
20260506212057 70 185 5.0 12.0 0.00 0.14 0.14 77 1007.6
20260506211017 70 191 5.0 12.0 0.00 0.14 0.14 76 1007.6
20260506210017 70 199 7.0 17.0 0.00 0.14 0.14 77 1007.4
20260506205037 70 185 5.0 11.0 0.00 0.14 0.14 76 1007.6
20260506204017 70 189 4.0 9.0 0.00 0.14 0.14 76 1007.5
20260506203016 71 200 6.0 11.0 0.00 0.14 0.14 76 1007.4
20260506202016 70 187 6.0 14.0 0.00 0.14 0.14 76 1007.3
20260506201016 70 191 7.0 12.0 0.00 0.14 0.14 76 1007.2
20260506200016 70 195 6.0 11.0 0.00 0.14 0.14 76 1007.4
20260506195017 69 189 8.0 14.0 0.00 0.14 0.14 77 1007.4
20260506194017 68 190 5.0 12.0 0.00 0.14 0.14 79 1007.6
20260506193036 69 192 8.0 15.0 0.00 0.14 0.14 78 1007.6
20260506192036 69 191 6.0 13.0 0.00 0.14 0.14 78 1007.7
20260506191016 69 191 4.0 10.0 0.00 0.14 0.14 78 1007.7
20260506190016 69 177 7.0 14.0 0.00 0.14 0.14 77 1007.9
20260506185016 69 196 6.0 11.0 0.00 0.14 0.14 77 1008.0
20260506184016 69 189 6.0 14.0 0.00 0.14 0.14 77 1008.2
20260506183016 69 198 7.0 12.0 0.00 0.14 0.14 77 1008.3
20260506182017 68 184 7.0 13.0 0.00 0.14 0.14 78 1008.3
20260506181016 68 184 6.0 13.0 0.00 0.14 0.14 79 1008.4
20260506180017 67 196 7.0 12.0 0.00 0.14 0.14 80 1008.6
20260506175017 67 185 7.0 13.0 0.00 0.14 0.14 80 1008.7
20260506174037 67 190 5.0 11.0 0.00 0.14 0.14 80 1008.9
20260506173038 67 194 7.0 15.0 0.00 0.14 0.14 79 1008.7
20260506172018 66 197 7.0 15.0 0.00 0.14 0.14 81 1008.6
20260506171018 66 193 7.0 13.0 0.00 0.14 0.14 83 1008.7
20260506170018 66 175 6.0 13.0 0.01 0.14 0.14 84 1008.8
20260506165015 65 177 6.0 16.0 0.01 0.14 0.14 86 1008.7
20260506164015 64 175 6.0 11.0 0.03 0.14 0.14 88 1008.8
20260506163016 64 176 6.0 11.0 0.05 0.14 0.14 88 1009.2
20260506162016 64 170 5.0 9.0 0.07 0.13 0.13 89 1009.2
20260506161016 63 163 4.0 9.0 0.08 0.13 0.13 90 1009.2
20260506160016 63 145 5.0 10.0 0.09 0.13 0.13 90 1009.2
20260506155016 63 153 4.0 8.0 0.10 0.12 0.12 90 1009.6
20260506154036 63 165 4.0 9.0 0.09 0.11 0.11 89 1010.0
20260506153037 64 166 5.0 8.0 0.08 0.09 0.09 87 1010.2
20260506152117 65 183 5.0 12.0 0.06 0.06 0.06 85 1010.2
20260506151017 65 173 4.0 8.0 0.05 0.05 0.05 84 1010.1
20260506150017 65 173 5.0 13.0 0.03 0.03 0.03 81 1010.2
20260506145017 66 173 5.0 12.0 0.02 0.02 0.02 80 1010.2
20260506144017 66 187 5.0 11.0 0.02 0.02 0.02 77 1010.3
20260506143038 68 182 5.0 10.0 0.01 0.01 0.01 73 1010.2
20260506142018 69 184 6.0 9.0 0.00 0.00 0.00 68 1010.2
20260506141018 69 192 5.0 8.0 0.00 0.00 0.00 67 1010.3
20260506140058 69 190 6.0 13.0 0.00 0.00 0.00 67 1010.2
20260506135015 69 182 6.0 13.0 0.00 0.00 0.00 67 1010.2
20260506134035 69 186 4.0 11.0 0.00 0.00 0.00 66 1010.1
20260506133016 69 178 5.0 11.0 0.00 0.00 0.00 66 1010.1
20260506132016 69 177 5.0 11.0 0.00 0.00 0.00 66 1010.0
20260506131016 68 182 6.0 12.0 0.00 0.00 0.00 67 1009.9
20260506130016 68 178 5.0 11.0 0.00 0.00 0.00 67 1010.0
20260506125016 68 184 7.0 16.0 0.00 0.00 0.00 67 1010.0
20260506124018 68 178 6.0 12.0 0.00 0.00 0.00 66 1010.1
20260506123017 68 181 6.0 13.0 0.00 0.00 0.00 66 1010.2
20260506122017 68 175 7.0 18.0 0.00 0.00 0.00 66 1010.2
20260506121017 68 174 7.0 12.0 0.00 0.00 0.00 66 1010.2
20260506120017 68 168 6.0 11.0 0.00 0.00 0.00 67 1010.1
20260506115037 68 181 6.0 13.0 0.00 0.00 0.00 67 1010.1
20260506114018 67 170 6.0 12.0 0.00 0.00 0.00 69 1010.0
20260506113038 66 159 6.0 11.0 0.00 0.00 0.00 72 1010.0
20260506112018 66 164 5.0 11.0 0.00 0.00 0.00 73 1010.0
20260506111015 66 167 6.0 11.0 0.00 0.00 0.00 73 1009.7
20260506110015 66 166 6.0 11.0 0.00 0.00 0.00 73 1009.8
20260506105015 65 165 6.0 12.0 0.00 0.00 0.00 74 1009.7
20260506104016 65 178 6.0 12.0 0.00 0.00 0.00 75 1009.7
20260506103016 65 174 5.0 11.0 0.00 0.00 0.00 76 1009.6
20260506102016 65 177 6.0 12.0 0.00 0.00 0.00 76 1009.6
20260506101016 65 172 6.0 12.0 0.00 0.00 0.00 76 1009.8
20260506100016 65 168 6.0 12.0 0.00 0.00 0.00 77 1009.8
20260506095016 65 173 6.0 13.0 0.00 0.00 0.00 77 1009.7
20260506094016 65 172 6.0 14.0 0.00 0.00 0.00 77 1009.7
20260506093017 65 172 5.0 9.0 0.00 0.00 0.00 77 1009.8
20260506092017 65 171 5.0 11.0 0.00 0.00 0.00 76 1009.8
20260506091017 65 175 5.0 9.0 0.00 0.00 0.00 76 1009.8
20260506090017 65 167 5.0 10.0 0.00 0.00 0.00 76 1009.8
20260506085018 65 168 6.0 12.0 0.00 0.00 0.00 76 1009.7
20260506084018 66 165 6.0 13.0 0.00 0.00 0.00 76 1009.7
20260506083018 66 162 5.0 10.0 0.00 0.00 0.00 76 1009.6
20260506082019 66 172 5.0 11.0 0.00 0.00 0.00 76 1009.8
20260506081018 66 166 5.0 10.0 0.00 0.00 0.00 75 1009.9
20260506073016 67 171 5.0 11.0 0.00 0.00 0.00 75 1010.1
20260506072016 67 165 5.0 8.0 0.00 0.00 0.00 75 1010.1
20260506071016 67 175 5.0 10.0 0.00 0.00 0.00 74 1010.1
20260506062017 68 160 6.0 11.0 0.00 0.00 0.00 72 1010.2
20260506061017 69 166 6.0 13.0 0.00 0.00 0.00 71 1010.3
20260506051015 70 170 6.0 13.0 0.00 0.00 0.00 69 1010.5
20260506045016 70 170 6.0 14.0 0.00 0.00 0.00 69 1010.6
20260506044016 69 162 6.0 11.0 0.00 0.00 0.00 69 1010.6
20260506043016 69 167 6.0 10.0 0.00 0.00 0.00 70 1010.6
20260506042016 69 169 5.0 8.0 0.00 0.00 0.00 69 1010.7
20260506041016 69 156 5.0 9.0 0.00 0.00 0.00 69 1010.7